Location: NJAA Observatory
(40.6819°N, 74.8979°W)
Time: 04:11:11
(UTC-04:00)

Landsat 5 - Visible Passes

Search period start: 29 April 2016 00:00
Search period end: 09 May 2016 00:00
Orbit: 529 x 659 km, 98.0° (Epoch: 28 April)

Date Brightness Start Highest point End Pass type
(mag) Time Alt. Az. Time Alt. Az. Time Alt. Az.
29 Apr 6.3 00:58:32 13° NNW 00:58:32 13° NNW 00:59:01 10° NNW visible
29 Apr 6.2 23:31:19 11° NNE 23:31:19 11° NNE 23:31:32 10° NNE visible
30 Apr 6.3 01:07:56 12° NNW 01:07:56 12° NNW 01:08:16 10° NNW visible
30 Apr 6.1 23:40:43 13° NNE 23:40:43 13° NNE 23:41:20 10° NNE visible
01 May 6.4 01:17:21 11° NW 01:17:21 11° NW 01:17:28 10° NW visible
01 May 6.0 23:50:07 15° NNE 23:50:07 15° NNE 23:50:59 10° NNE visible
02 May 5.9 23:59:32 16° NNE 23:59:32 16° NNE 00:00:35 10° N visible
04 May 5.9 00:08:56 18° NNE 00:08:56 18° NNE 00:10:06 10° N visible
05 May 5.8 00:18:20 19° N 00:18:20 19° N 00:19:35 10° N visible
06 May 5.8 00:27:44 20° N 00:27:44 20° N 00:29:01 10° N visible
07 May 5.8 00:37:08 20° N 00:37:08 20° N 00:38:25 10° N visible
08 May 5.8 00:46:32 20° NNW 00:46:32 20° NNW 00:47:46 10° NNW visible
